| time (UTC) | temp F | wind direction | speed knots | gust knots | rain 1hr in | rain 24hr in | rain mn in | humidity % | barometer mb |
| 20260508013054 | 54 | 0 | 0.0 | 2.6 | 0.00 | 0.30 | 0.16 | 77 | 1008.3 |
| 20260508011556 | 55 | 0 | 0.0 | 0.9 | 0.00 | 0.30 | 0.16 | 75 | 1008.2 |
| 20260508010054 | 56 | 0 | 0.0 | 2.6 | 0.00 | 0.30 | 0.16 | 73 | 1008.1 |
| 20260508004609 | 56 | 173 | 1.7 | 6.1 | 0.00 | 0.30 | 0.16 | 70 | 1008.0 |
| 20260508003111 | 57 | 184 | 1.7 | 6.1 | 0.00 | 0.30 | 0.16 | 66 | 1007.7 |
| 20260508001556 | 58 | 194 | 1.7 | 7.8 | 0.00 | 0.30 | 0.16 | 60 | 1007.5 |
| 20260508000059 | 61 | 0 | 0.0 | 7.0 | 0.00 | 0.30 | 0.16 | 45 | 1007.2 |
| 20260507234559 | 62 | 0 | 0.0 | 0.9 | 0.00 | 0.30 | 0.16 | 44 | 1007.2 |
| 20260507233055 | 63 | 0 | 0.0 | 2.6 | 0.00 | 0.30 | 0.16 | 36 | 1007.1 |
| 20260507231557 | 64 | 0 | 0.0 | 2.6 | 0.00 | 0.30 | 0.16 | 34 | 1006.9 |
| 20260507224553 | 65 | 0 | 0.0 | 3.5 | 0.00 | 0.30 | 0.16 | 34 | 1006.8 |
| 20260507223054 | 66 | 0 | 0.0 | 2.6 | 0.00 | 0.30 | 0.16 | 35 | 1007.0 |
| 20260507221556 | 66 | 0 | 1.7 | 7.0 | 0.00 | 0.30 | 0.16 | 32 | 1007.1 |
| 20260507220051 | 66 | 9 | 1.7 | 9.6 | 0.00 | 0.30 | 0.16 | 32 | 1007.0 |
| 20260507214615 | 66 | 10 | 3.5 | 9.6 | 0.00 | 0.30 | 0.16 | 32 | 1007.0 |
| 20260507213106 | 66 | 23 | 5.2 | 9.6 | 0.00 | 0.30 | 0.16 | 31 | 1007.1 |
| 20260507211613 | 67 | 267 | 1.7 | 11.3 | 0.00 | 0.30 | 0.16 | 33 | 1007.0 |
| 20260507210059 | 66 | 0 | 2.6 | 7.8 | 0.00 | 0.30 | 0.16 | 31 | 1006.8 |
| 20260507204606 | 66 | 0 | 2.6 | 10.4 | 0.00 | 0.30 | 0.16 | 33 | 1006.8 |
| 20260507203059 | 66 | 36 | 3.5 | 8.7 | 0.00 | 0.30 | 0.16 | 34 | 1006.7 |
| 20260507201552 | 66 | 49 | 3.5 | 9.6 | 0.00 | 0.30 | 0.16 | 36 | 1006.9 |
| 20260507200052 | 66 | 24 | 0.9 | 6.1 | 0.00 | 0.30 | 0.16 | 37 | 1007.0 |
| 20260507194628 | 66 | 254 | 0.0 | 7.8 | 0.00 | 0.30 | 0.16 | 35 | 1007.0 |
| 20260507193055 | 65 | 0 | 0.0 | 7.0 | 0.00 | 0.30 | 0.16 | 36 | 1007.2 |
| 20260507191554 | 64 | 32 | 3.5 | 8.7 | 0.00 | 0.30 | 0.16 | 36 | 1007.4 |
| 20260507190053 | 64 | 355 | 2.6 | 12.2 | 0.00 | 0.30 | 0.16 | 37 | 1007.6 |
| 20260507184605 | 64 | 327 | 3.5 | 11.3 | 0.00 | 0.30 | 0.16 | 38 | 1007.7 |
| 20260507183054 | 64 | 360 | 1.7 | 7.0 | 0.00 | 0.30 | 0.16 | 39 | 1008.0 |
| 20260507181555 | 63 | 28 | 1.7 | 9.6 | 0.00 | 0.30 | 0.16 | 40 | 1008.1 |
| 20260507174557 | 63 | 5 | 5.2 | 9.6 | 0.00 | 0.30 | 0.16 | 38 | 1008.5 |
| 20260507173058 | 62 | 37 | 3.5 | 8.7 | 0.00 | 0.30 | 0.16 | 38 | 1008.8 |
| 20260507171605 | 62 | 33 | 2.6 | 12.2 | 0.00 | 0.30 | 0.16 | 43 | 1009.0 |
| 20260507164606 | 60 | 281 | 1.7 | 7.8 | 0.00 | 0.30 | 0.16 | 47 | 1009.3 |
| 20260507163107 | 61 | 30 | 3.5 | 8.7 | 0.00 | 0.30 | 0.16 | 47 | 1009.7 |
| 20260507161555 | 61 | 0 | 3.5 | 10.4 | 0.00 | 0.30 | 0.16 | 48 | 1009.7 |
| 20260507160057 | 60 | 229 | 1.7 | 7.8 | 0.00 | 0.30 | 0.16 | 52 | 1009.8 |
| 20260507154559 | 59 | 10 | 2.6 | 9.6 | 0.00 | 0.30 | 0.16 | 54 | 1010.0 |
| 20260507153051 | 59 | 19 | 2.6 | 8.7 | 0.00 | 0.30 | 0.16 | 55 | 1010.4 |
| 20260507151556 | 58 | 59 | 3.5 | 10.4 | 0.00 | 0.30 | 0.16 | 56 | 1010.8 |
| 20260507150058 | 57 | 22 | 1.7 | 8.7 | 0.00 | 0.30 | 0.16 | 60 | 1010.7 |
| 20260507144554 | 56 | 360 | 3.5 | 7.8 | 0.00 | 0.30 | 0.16 | 63 | 1010.7 |
| 20260507143101 | 56 | 344 | 3.5 | 9.6 | 0.00 | 0.30 | 0.16 | 65 | 1011.0 |
| 20260507141553 | 55 | 5 | 5.2 | 10.4 | 0.00 | 0.30 | 0.16 | 66 | 1011.1 |
| 20260507140056 | 56 | 26 | 2.6 | 7.8 | 0.00 | 0.30 | 0.16 | 67 | 1011.0 |
| 20260507134559 | 55 | 9 | 1.7 | 8.7 | 0.00 | 0.30 | 0.16 | 70 | 1011.0 |
| 20260507133103 | 54 | 250 | 3.5 | 8.7 | 0.00 | 0.30 | 0.16 | 72 | 1011.0 |
| 20260507131611 | 54 | 341 | 4.3 | 9.6 | 0.00 | 0.30 | 0.16 | 74 | 1011.0 |
| 20260507130053 | 54 | 5 | 5.2 | 8.7 | 0.00 | 0.30 | 0.16 | 75 | 1011.0 |
| 20260507124551 | 53 | 338 | 3.5 | 8.7 | 0.00 | 0.30 | 0.16 | 77 | 1010.9 |
| 20260507123059 | 53 | 41 | 2.6 | 8.7 | 0.00 | 0.30 | 0.16 | 78 | 1010.9 |
| 20260507121601 | 53 | 360 | 4.3 | 8.7 | 0.00 | 0.30 | 0.16 | 79 | 1010.9 |
| 20260507120059 | 52 | 352 | 1.7 | 7.0 | 0.00 | 0.30 | 0.16 | 81 | 1010.9 |
| 20260507114604 | 52 | 360 | 1.7 | 5.2 | 0.00 | 0.30 | 0.16 | 83 | 1010.9 |
| 20260507113101 | 52 | 338 | 1.7 | 4.3 | 0.00 | 0.30 | 0.16 | 84 | 1010.8 |
| 20260507111605 | 52 | 355 | 1.7 | 5.2 | 0.00 | 0.30 | 0.16 | 85 | 1010.5 |
| 20260507104600 | 51 | 350 | 0.9 | 3.5 | 0.00 | 0.30 | 0.16 | 88 | 1010.1 |
| 20260507103100 | 51 | 360 | 0.0 | 2.6 | 0.00 | 0.30 | 0.16 | 89 | 1010.0 |
| 20260507101557 | 50 | 0 | 0.0 | 2.6 | 0.00 | 0.30 | 0.16 | 88 | 1009.6 |
| 20260507100103 | 50 | 0 | 0.0 | 2.6 | 0.00 | 0.30 | 0.16 | 88 | 1010.0 |
| 20260507094557 | 50 | 0 | 0.0 | 3.5 | 0.00 | 0.30 | 0.16 | 88 | 1009.8 |
| 20260507093058 | 50 | 0 | 0.9 | 4.3 | 0.00 | 0.30 | 0.16 | 88 | 1009.8 |
| 20260507091557 | 50 | 19 | 0.9 | 3.5 | 0.00 | 0.30 | 0.16 | 88 | 1009.5 |
| 20260507090054 | 50 | 62 | 0.0 | 6.1 | 0.00 | 0.30 | 0.16 | 88 | 1009.5 |
| 20260507084551 | 50 | 38 | 1.7 | 7.0 | 0.00 | 0.30 | 0.16 | 88 | 1009.2 |
| 20260507083054 | 51 | 340 | 2.6 | 8.7 | 0.00 | 0.30 | 0.16 | 87 | 1009.2 |
| 20260507081551 | 51 | 9 | 1.7 | 8.7 | 0.00 | 0.30 | 0.16 | 87 | 1009.1 |
| 20260507080100 | 51 | 5 | 4.3 | 9.6 | 0.00 | 0.30 | 0.16 | 87 | 1009.4 |
| 20260507074553 | 52 | 341 | 3.5 | 8.7 | 0.00 | 0.30 | 0.16 | 87 | 1009.9 |
| 20260507073052 | 52 | 325 | 2.6 | 7.8 | 0.01 | 0.30 | 0.16 | 89 | 1009.5 |
| 20260507071608 | 52 | 348 | 2.6 | 8.7 | 0.05 | 0.30 | 0.16 | 88 | 1009.6 |
| 20260507070056 | 52 | 360 | 4.3 | 9.6 | 0.12 | 0.30 | 0.16 | 89 | 1009.4 |
| 20260507064553 | 52 | 10 | 1.7 | 7.0 | 0.13 | 0.30 | 0.16 | 90 | 1009.2 |
| 20260507063055 | 52 | 351 | 3.5 | 8.7 | 0.15 | 0.29 | 0.15 | 89 | 1009.3 |
| 20260507061559 | 52 | 339 | 3.5 | 8.7 | 0.11 | 0.25 | 0.11 | 87 | 1009.5 |
| 20260507060100 | 54 | 334 | 2.6 | 10.4 | 0.04 | 0.18 | 0.04 | 86 | 1009.2 |
| 20260507054559 | 56 | 345 | 3.5 | 11.3 | 0.03 | 0.17 | 0.03 | 85 | 1009.3 |
| 20260507053124 | 56 | 36 | 2.6 | 6.1 | 0.00 | 0.14 | 0.00 | 82 | 1008.2 |
| 20260507051600 | 56 | 336 | 1.7 | 8.7 | 0.00 | 0.14 | 0.00 | 82 | 1008.7 |
| 20260507050051 | 56 | 5 | 0.9 | 3.5 | 0.00 | 0.14 | 0.00 | 83 | 1008.2 |
| 20260507044556 | 57 | 37 | 3.5 | 8.7 | 0.00 | 0.14 | 0.00 | 83 | 1008.3 |
| 20260507043053 | 57 | 5 | 1.7 | 7.0 | 0.03 | 0.14 | 0.00 | 84 | 1008.6 |
| 20260507041558 | 58 | 32 | 3.5 | 7.0 | 0.04 | 0.14 | 0.00 | 86 | 1008.6 |
| 20260507040055 | 58 | 25 | 3.5 | 8.7 | 0.07 | 0.14 | 0.00 | 85 | 1008.2 |
| 20260507034555 | 60 | 16 | 4.3 | 13.0 | 0.14 | 0.14 | 0.14 | 84 | 1008.3 |
| 20260507033057 | 64 | 291 | 0.0 | 2.6 | 0.11 | 0.11 | 0.11 | 90 | 1007.8 |
| 20260507031556 | 64 | 0 | 0.0 | 3.5 | 0.10 | 0.10 | 0.10 | 88 | 1007.5 |
| 20260507030053 | 65 | 0 | 0.0 | 2.6 | 0.07 | 0.07 | 0.07 | 84 | 1007.5 |
| 20260507024601 | 67 | 0 | 0.0 | 0.0 | 0.00 | 0.00 | 0.00 | 79 | 1007.4 |
| 20260507023055 | 67 | 0 | 0.0 | 1.7 | 0.00 | 0.00 | 0.00 | 78 | 1007.5 |
| 20260507021553 | 67 | 0 | 0.0 | 3.5 | 0.00 | 0.00 | 0.00 | 78 | 1007.5 |
| 20260507020055 | 67 | 0 | 0.0 | 5.2 | 0.00 | 0.00 | 0.00 | 77 | 1007.8 |
| 20260507014612 | 68 | 209 | 0.0 | 5.2 | 0.00 | 0.00 | 0.00 | 77 | 1007.9 |